Flag for U.S.A. Weather past 2 weeks in Anchorage, Alaska, U.S.A.

Now
40 °F

Overcast.


Feels Like: 36 °F
Forecast: 38 / 49 °F
Wind: 6 mph from Northwest

Location: Lake Hood Seaplane


UV Index: 0 (Low)

Visibility: 10 mi


Pressure: 29.82 "Hg

Humidity: 77%

Dew point: 33 °F

Location of AnchorageLocation

Historic Weather in Anchorage

°F

Anchorage temperature yesterday

Maximum temperature yesterday: 47 °F (at 4:53 PM)
Minimum temperature yesterday: 29 °F (at 6:53 AM)
Average temperature yesterday: 39 °F

Past Weeks' High & Low Weather Summary

 TemperatureHumidityPressure
High47 °F (Apr 14, 4:53 PM)93% (Apr 7, 9:58 AM)30.28 "Hg (Apr 7, 9:58 AM)
Low17 °F (Apr 10, 4:53 AM)31% (Apr 9, 7:53 PM)29.23 "Hg (Apr 7, 5:53 PM)
Average33 °F60%29.79 "Hg
* Reported Mar 31 7:53 PM — Apr 15 7:53 PM, Anchorage, Weather by CustomWeather, © 2014

Note: Actual official high and low records may vary slightly from our data, if they occured in-between our weather recording intervals... More about our weather records

Advertising

Historic Weather Conditions — Data for Previous 24 hours

 ConditionsComfort  
Time TempWeatherWind HumidityBarometerVisibility
7:53 PM
Apr 15
42 °FMostly cloudy.No wind71%29.81 "Hg10 mi
6:53 PM43 °FMostly cloudy.3 mph68%29.81 "Hg10 mi
5:53 PM45 °FMostly cloudy.5 mph58%29.81 "Hg10 mi
4:53 PM45 °FOvercast.5 mph58%29.81 "Hg10 mi
3:53 PM45 °FOvercast.5 mph58%29.81 "Hg10 mi
2:53 PM44 °FMostly cloudy.7 mph60%29.81 "Hg10 mi
1:53 PM42 °FOvercast.5 mph65%29.81 "Hg10 mi
12:53 PM39 °FOvercast.3 mph65%29.81 "Hg10 mi
11:53 AM37 °FMostly cloudy.5 mph65%29.82 "Hg10 mi
10:53 AM37 °FOvercast.3 mph65%29.82 "Hg10 mi
9:53 AM36 °FMostly cloudy.3 mph64%29.82 "Hg10 mi
8:53 AM36 °FOvercast.No wind67%29.82 "Hg10 mi
7:53 AM34 °FOvercast.3 mph70%29.82 "Hg10 mi
6:53 AM33 °FOvercast.No wind75%29.82 "Hg10 mi
5:53 AM35 °FOvercast.No wind67%29.82 "Hg10 mi
4:53 AM33 °FOvercast.No wind75%29.82 "Hg10 mi
3:53 AM33 °FPassing clouds.No wind72%29.82 "Hg10 mi
2:53 AM33 °FClear.No wind72%29.82 "Hg10 mi
1:53 AM36 °FClear.5 mph62%29.83 "Hg10 mi
12:53 AM38 °FClear.5 mph60%29.83 "Hg10 mi
11:53 PM
Apr 14
37 °FClear.3 mph67%29.84 "Hg10 mi
10:53 PM36 °FClear.5 mph75%29.84 "Hg10 mi
9:53 PM38 °FSunny.No wind68%29.84 "Hg10 mi
Weather by CustomWeather, © 2014

See weather overview